TimeCDT,TemperatureF,Dew PointF,Humidity,Sea Level PressureIn,VisibilityMPH,Wind Direction,Wind SpeedMPH,Gust SpeedMPH,PrecipitationIn,Events,Conditions,WindDirDegrees,DateUTC
12:53 AM,17.1,10.0,74,30.36,10.0,WNW,10.4,-,N/A,,Clear,300,2013-03-25 05:53:00
1:53 AM,16.0,10.0,77,30.37,10.0,WNW,10.4,-,N/A,,Clear,290,2013-03-25 06:53:00
2:53 AM,15.1,9.0,77,30.38,10.0,WNW,10.4,-,N/A,,Clear,290,2013-03-25 07:53:00
3:53 AM,15.1,9.0,77,30.38,10.0,WNW,13.8,-,N/A,,Clear,290,2013-03-25 08:53:00
4:53 AM,14.0,9.0,80,30.38,10.0,WNW,13.8,-,N/A,,Clear,300,2013-03-25 09:53:00
5:53 AM,14.0,8.1,77,30.38,10.0,WNW,15.0,-,N/A,,Clear,300,2013-03-25 10:53:00
6:53 AM,12.9,7.0,77,30.40,10.0,WNW,11.5,-,N/A,,Clear,300,2013-03-25 11:53:00
7:53 AM,12.9,7.0,77,30.42,10.0,WNW,12.7,-,N/A,,Clear,300,2013-03-25 12:53:00
8:53 AM,16.0,9.0,74,30.43,10.0,NW,13.8,-,N/A,,Clear,310,2013-03-25 13:53:00
9:53 AM,21.9,12.0,66,30.43,10.0,NNW,17.3,-,N/A,,Clear,330,2013-03-25 14:53:00
10:53 AM,25.0,12.0,58,30.44,10.0,NNW,19.6,-,N/A,,Clear,340,2013-03-25 15:53:00
11:53 AM,28.0,12.9,53,30.44,10.0,NNW,18.4,-,N/A,,Partly Cloudy,330,2013-03-25 16:53:00
12:53 PM,30.0,12.9,49,30.42,10.0,NW,17.3,26.5,N/A,,Mostly Cloudy,320,2013-03-25 17:53:00
1:53 PM,30.9,12.0,46,30.42,10.0,NNW,15.0,24.2,N/A,,Overcast,330,2013-03-25 18:53:00
2:53 PM,33.1,12.0,42,30.40,10.0,NW,17.3,26.5,N/A,,Overcast,310,2013-03-25 19:53:00
3:53 PM,32.0,12.9,45,30.39,10.0,NW,18.4,24.2,N/A,,Overcast,310,2013-03-25 20:53:00
4:53 PM,34.0,14.0,44,30.38,10.0,NW,15.0,31.1,N/A,,Partly Cloudy,320,2013-03-25 21:53:00
5:53 PM,34.0,12.9,42,30.37,10.0,NW,12.7,-,N/A,,Clear,320,2013-03-25 22:53:00
6:53 PM,33.1,14.0,46,30.38,10.0,NW,12.7,-,N/A,,Clear,310,2013-03-25 23:53:00
7:53 PM,30.0,15.1,54,30.40,10.0,West,10.4,-,N/A,,Clear,280,2013-03-26 00:53:00
8:53 PM,27.0,15.1,61,30.40,10.0,West,8.1,-,N/A,,Clear,280,2013-03-26 01:53:00
9:53 PM,25.0,15.1,66,30.41,10.0,NW,5.8,-,N/A,,Clear,310,2013-03-26 02:53:00
10:53 PM,19.9,14.0,78,30.43,10.0,West,5.8,-,N/A,,Clear,280,2013-03-26 03:53:00
11:53 PM,19.9,14.0,78,30.43,10.0,Calm,Calm,-,N/A,,Clear,0,2013-03-26 04:53:00